Regional Weather Roundup
Issued by NWS Cleveland, OH

Home | Current Version | Previous Version | Graphics & Text | Print | Product List | Glossary On
Versions: 1 2 3 4 5 6 7 8 9 10 11 12 13 14 15 16 17 18 19 20 21 22 23 24 25 26 27 28 29 30 31 32 33 34 35 36 37 38 39 40 41 42 43 44 45 46 47 48 49 50
371
ASUS41 KCLE 202310
RWRCLE
OHIO REGIONAL WEATHER ROUNDUP
NATIONAL WEATHER SERVICE CLEVELAND, OH
700 PM EDT SUN AUG 20 2017

NOTE: "FAIR" INDICATES FEW OR NO CLOUDS BELOW 12,000 FEET WITH NO
SIGNIFICANT WEATHER AND/OR OBSTRUCTIONS TO VISIBILITY.

OHZ001>008-015>018-024>027-034-035-043-044-210000-
   NORTHWEST OHIO

CITY           SKY/WX    TMP DP  RH WIND       PRES   REMARKS
DEFIANCE       SUNNY     85  64  49 CALM      30.04S
FINDLAY        PTSUNNY   84  69  60 CALM      30.04R
TOLEDO EXPRESS SUNNY     80  70  71 CALM      30.05R
TOLEDO EXEC    MOSUNNY   84  66  54 SE6       30.05S
LIMA           CLOUDY    84  70  62 VRB5      30.06R
$$

OHZ009>014-019>023-028>033-038-089-210000-
   NORTHEAST OHIO

CITY           SKY/WX    TMP DP  RH WIND       PRES   REMARKS
CLE-HOPKINS    MOSUNNY   84  62  47 NE7       30.09S
CLE-LAKEFRONT  SUNNY     77  66  68 NE10      30.06S
CUY CO. ARPT   MOSUNNY   82  66  57 NE8       30.08F
LORAIN-ELYRIA    N/A    N/A N/A N/A MISG      30.07F
ASHTABULA      CLOUDY    80  59  48 SE5       30.11S
AKRON-CANTON   MOSUNNY   84  60  44 SW8       30.10S
WOOSTER        PTSUNNY   81  66  60 VRB5      30.10S
MANSFIELD      MOSUNNY   82  68  62 SE10      30.09S
YOUNGSTOWN     MOSUNNY   81  59  47 SE8       30.11S
$$

OHZ042-051>053-060>062-070>072-077>081-210000-
  SOUTHWEST OHIO

CITY           SKY/WX    TMP DP  RH WIND       PRES   REMARKS
CINC-COVINGTON PTSUNNY   86  68  54 SW3       30.07R
CINC-LUNKEN    PTSUNNY   85  72  65 S7        30.06R HX  91
HAMILTON       SUNNY     86  67  52 SW5       30.07R
DAYTON         PTSUNNY   85  63  47 W12       30.08R
WRIGHT-PAT AFB DRIZZLE   88  62  41 W12       30.06R
DAYTON GENERAL MOSUNNY   86  62  44 W8        30.07R
WILMINGTON     SUNNY     83  71  67 S5        30.08R
$$

OHZ036-037-039>041-045>050-054>059-063>069-073>076-082>088-210000-
  CENTRAL AND SOUTHEAST OHIO

CITY           SKY/WX    TMP DP  RH WIND       PRES   REMARKS
COLUMBUS       MOSUNNY   86  69  56 S8        30.06R HX  90
OSU AIRPORT    PTSUNNY   85  68  56 SW10      30.06R
BOLTON FIELD   SUNNY     84  70  61 SW7       30.07R
RICKENBACK AFB MOSUNNY   85  70  61 S6        30.06R
NEWARK         MOSUNNY   84  67  56 VRB7      30.07R
MARION         MOSUNNY   82  69  64 S5        30.07S
LANCASTER      SUNNY     85  69  58 S7        30.08R
ZANESVILLE     SUNNY     84  68  58 S6        30.09R
NEW PHILLY     NOT AVBL
$$




USA.gov is the U.S. government's official web portal to all federal, state and local government web resources and services.